Trabzon, Turkey

12:55 AM +03 on April 22, 2018 (GMT +0300)
Trabzon

Weather History for LTCG - March, 2014

Change the Weather History Date:

Tuesday, March 4, 2014

  Actual Average Record
Temperature  
Mean Temperature 60 °F -  
Max Temperature 70 °F 52 °F 70 °F (2014)
Min Temperature 51 °F 42 °F 35 °F (2009)
Degree Days  
Heating Degree Days 4    
Growing Degree Days 10 (Base 50)    
Moisture  
Dew Point 46 °F    
Average Humidity 65    
Maximum Humidity 88    
Minimum Humidity 21    
Precipitation  
Precipitation 0.00 in - - ()
Sea Level Pressure  
Sea Level Pressure 29.70 in    
Wind  
Wind Speed 5 mph ()    
Max Wind Speed 18 mph    
Max Gust Speed 29 mph    
Visibility 6.2 miles    
Events Rain    
Averages and records for this station are not official NWS values.
T = Trace of Precipitation, MM = Missing Value Source: Averaged Metar Reports

Daily Weather History Graph

Daily Weather History Graph

Search for Another Location

Airport or City:

Astronomy

Mar. 04, 2014 Rise Set
Actual Time 5:50 AM EET 5:14 PM EET
Civil Twilight 5:23 AM EET 5:42 PM EET
Nautical Twilight 4:51 AM EET 6:14 PM EET
Astronomical Twilight 4:19 AM EET 6:46 PM EET
Moon 7:21 AM EET (3/4) 9:01 PM EET (3/4)
Length of Visible Light 12h 19m
Length of Day
11h 24m
Waxing Crescent, 12% of the Moon is Illuminated
Mar 4
Waxing Crescent
Mar 8
First Quarter
Mar 16
Full
Mar 24
Last Quarter
Mar 30
New

Hourly Weather History & Observations

Time (EET) Temp. Dew Point Humidity Pressure Visibility Wind Dir Wind Speed Gust Speed Precip Events Conditions
12:20 AM 59.0 °F 41.0 °F 51% 29.68 in 4.3 mi Variable 2.3 mph - N/A   Mostly Cloudy
12:50 AM 59.0 °F 42.8 °F 55% 29.68 in 5.6 mi Variable 2.3 mph - N/A   Mostly Cloudy
1:20 AM 55.4 °F 44.6 °F 67% 29.68 in 5.0 mi Calm Calm - N/A   Mostly Cloudy
1:50 AM 55.4 °F 44.6 °F 67% 29.68 in 5.6 mi Calm Calm - N/A   Mostly Cloudy
2:00 AM 54 °F 45 °F 63% 29.69 in 6 mi Calm Calm - -   Widespread Dust
2:20 AM 55.4 °F 44.6 °F 67% 29.68 in 6.2 mi Calm Calm - N/A   Mostly Cloudy
2:50 AM 55.4 °F 46.4 °F 72% 29.68 in 6.2 mi West 10.4 mph - N/A   Mostly Cloudy
3:20 AM 55.4 °F 46.4 °F 72% 29.68 in 6.2 mi West 10.4 mph - N/A   Mostly Cloudy
3:50 AM 53.6 °F 46.4 °F 77% 29.65 in 6.2 mi West 9.2 mph - N/A   Mostly Cloudy
4:20 AM 55.4 °F 46.4 °F 72% 29.65 in 6.2 mi West 9.2 mph - N/A   Mostly Cloudy
4:50 AM 55.4 °F 44.6 °F 67% 29.68 in 6.2 mi Variable 2.3 mph - N/A   Mostly Cloudy
5:00 AM 55 °F 45 °F 59% 29.69 in 12 mi SE 2.3 mph - -   Partly Cloudy
5:20 AM 55.4 °F 44.6 °F 67% 29.68 in 6.2 mi East 4.6 mph - N/A   Mostly Cloudy
5:50 AM 53.6 °F 46.4 °F 77% 29.68 in 5.6 mi Calm Calm - N/A   Mostly Cloudy
6:20 AM 53.6 °F 44.6 °F 72% 29.65 in 5.6 mi Calm Calm - N/A   Mostly Cloudy
6:50 AM 51.8 °F 46.4 °F 82% 29.65 in 5.6 mi SE 5.8 mph - N/A   Mostly Cloudy
7:20 AM 53.6 °F 46.4 °F 77% 29.68 in 5.6 mi Variable 1.2 mph - N/A   Mostly Cloudy
7:50 AM 53.6 °F 48.2 °F 82% 29.68 in 5.0 mi Calm Calm - N/A   Mostly Cloudy
8:00 AM 54 °F 47 °F 71% 29.69 in 5 mi Calm Calm - -   Mist
8:20 AM 51.8 °F 48.2 °F 88% 29.68 in 5.0 mi Variable 2.3 mph - N/A   Mostly Cloudy
8:50 AM 53.6 °F 48.2 °F 82% 29.65 in 5.6 mi NW 5.8 mph - N/A   Mostly Cloudy
9:20 AM 53.6 °F 48.2 °F 82% 29.65 in 5.6 mi Variable 1.2 mph - N/A   Mostly Cloudy
9:50 AM 59.0 °F 48.2 °F 67% 29.65 in 3.7 mi Variable 1.2 mph - N/A   Mostly Cloudy
10:20 AM 55.4 °F 50.0 °F 82% 29.65 in 6.2 mi Variable 2.3 mph - N/A   Mostly Cloudy
10:50 AM 53.6 °F 48.2 °F 82% 29.65 in 5.6 mi Calm Calm - N/A   Mostly Cloudy
11:00 AM 53 °F 49 °F 80% 29.66 in 6 mi Calm Calm - -   Mist
11:20 AM 53.6 °F 48.2 °F 82% 29.65 in 5.6 mi WNW 4.6 mph - N/A   Mostly Cloudy
11:50 AM 55.4 °F 50.0 °F 82% 29.62 in 5.0 mi Calm Calm - N/A   Mostly Cloudy
12:20 PM 57.2 °F 48.2 °F 72% 29.62 in 4.3 mi Calm Calm - N/A   Mostly Cloudy
12:50 PM 55.4 °F 48.2 °F 77% 29.62 in 4.3 mi ESE 5.8 mph - N/A   Mostly Cloudy
1:20 PM 59.0 °F 46.4 °F 63% 29.62 in 5.0 mi Variable 3.5 mph - N/A   Mostly Cloudy
1:50 PM 69.8 °F 39.2 °F 33% 29.62 in 6.2 mi South 13.8 mph - N/A   Mostly Cloudy
2:00 PM 70 °F 39 °F 21% 29.65 in 12 mi South 13.8 mph - -   Partly Cloudy
2:20 PM 69.8 °F 39.2 °F 33% 29.65 in 5.6 mi South 15.0 mph - N/A   Mostly Cloudy
2:50 PM 69.8 °F 37.4 °F 31% 29.65 in 6.2 mi SSW 11.5 mph - N/A   Mostly Cloudy
3:20 PM 69.8 °F 39.2 °F 33% 29.65 in 6.2 mi SSE 8.1 mph - N/A   Mostly Cloudy
3:50 PM 69.8 °F 39.2 °F 33% 29.65 in 6.2 mi SSE 12.7 mph - N/A   Mostly Cloudy
4:20 PM 69.8 °F 39.2 °F 33% 29.65 in 6.2 mi SSE 11.5 mph - N/A   Mostly Cloudy
4:50 PM 64.4 °F 42.8 °F 45% 29.65 in 6.2 mi East 9.2 mph - N/A   Mostly Cloudy
5:00 PM 64 °F 43 °F 35% 29.67 in 9 mi East 9.2 mph - -   Partly Cloudy
5:20 PM 64.4 °F 42.8 °F 45% 29.68 in 4.3 mi ESE 6.9 mph - N/A   Mostly Cloudy
5:50 PM 64.4 °F 42.8 °F 45% 29.68 in 5.0 mi SSE 5.8 mph - N/A   Mostly Cloudy
6:20 PM 59.0 °F 46.4 °F 63% 29.71 in 6.2 mi Variable 2.3 mph - N/A   Mostly Cloudy
6:49 PM 64.4 °F 48.2 °F 56% 29.74 in 6.2 mi WSW 6.9 mph - N/A Rain Light Rain Showers
6:50 PM 64.4 °F 48.2 °F 56% 29.74 in 5.6 mi WSW 6.9 mph - N/A Rain Light Rain Showers
7:12 PM 60.8 °F 48.2 °F 63% 29.74 in 5.6 mi WNW 17.3 mph 28.8 mph N/A Rain Light Rain Showers
7:20 PM 55.4 °F 48.2 °F 77% 29.77 in 6.2 mi WNW 18.4 mph - N/A Rain Light Rain Showers
7:50 PM 55.4 °F 48.2 °F 77% 29.77 in 6.2 mi West 13.8 mph - N/A   Mostly Cloudy
8:00 PM 55 °F 48 °F 70% 29.79 in 12 mi West 13.8 mph - - Rain Light Rain Showers
8:20 PM 57.2 °F 48.2 °F 72% 29.80 in 6.2 mi West 13.8 mph - N/A   Mostly Cloudy
8:27 PM 59.0 °F 48.2 °F 67% 29.80 in 5.6 mi West 11.5 mph - N/A Rain Light Rain Showers
8:50 PM 55.4 °F 48.2 °F 77% 29.80 in 6.2 mi WNW 8.1 mph - N/A   Mostly Cloudy
9:20 PM 55.4 °F 48.2 °F 77% 29.83 in 6.2 mi West 5.8 mph - N/A Rain Light Rain Showers
9:50 PM 53.6 °F 48.2 °F 82% 29.83 in 6.2 mi Variable 3.5 mph - N/A   Mostly Cloudy
10:20 PM 53.6 °F 50.0 °F 88% 29.83 in 6.2 mi SE 11.5 mph - N/A   Mostly Cloudy
10:50 PM 59.0 °F 48.2 °F 67% 29.83 in 6.2 mi SSE 10.4 mph 21.9 mph N/A   Mostly Cloudy
11:00 PM 59 °F 48 °F 58% 29.85 in 12 mi SSE 10.4 mph - -   Partly Cloudy
11:20 PM 59.0 °F 48.2 °F 67% 29.83 in 6.2 mi Calm Calm - N/A   Mostly Cloudy
11:50 PM 57.2 °F 48.2 °F 72% 29.86 in 6.2 mi WSW 4.6 mph - N/A   Mostly Cloudy